Location: Christian Reformed Church
(43.0975°N, 93.8113°W)
Time: 14:55:57
(UTC+00:00)

Cosmos 1437 Rocket - Pass Details

Date: 13 December 2025
Orbit: 446 x 485 km, 81.2° (Epoch: 16 January)

Event Time Altitude Azimuth Distance (km) Brightness Sun altitude
Exits shadow 12:54:19 - 340° (NNW) 2,204 5.5 -8.0°
Reaches altitude 10° 12:55:51 10° 334° (NNW) 1,585 4.7 -7.7°
Maximum altitude 12:59:04 37° 265° (W) 714 3.0 -7.2°
Drops below altitude 10° 13:02:17 10° 196° (SSW) 1,586 5.3 -6.7°
Sets 13:04:27 0° 188° (S) 2,460 6.4 -6.3°
